Showing default

COSMOS 1995, 19786

Orbit data source: Space-Track

COSMOS 1995, 19786 is a payload satellite owned by UNKS (CIS) in LEO that was launched on Fri, 10 Feb 1989 UTC via a TSIKLON-3 launch vehicle from the Plesetsk Missile And Space Complex (PKMTR). Payload-class satellites include a variety of spacecraft equipped with specific instruments for various scientific and technological missions. These include communications satellites like Starlink; space stations such as the ISS; scientific satellites like the Hubble; Earth observation satellites from companies like Planet Labs, Umbra, and HawkEye 360; GPS; miniature CubeSats for education and research; and military/defense satellites.

Loading next visibility...
Identifier
19786, 1989-009B
Orbit
LEO
Country
Flag of CISCIS
Related business
Manufacturer
NPO PM
Mission
Defense Communications
Bus & Motor
STRELA-3, Unknown motor
Mass
225 kg wet, 225 kg dry
Launch date (UTC)
1989-02-10 (38 years ago)
Launch vehicle
TSIKLON-3
Launch site
Plesetsk Missile And Space Complex (PKMTR)
Object type
Payload
Rocket body
Debris
Shape & HBR
Cyl, 0.9 m
Radar Cross Section
1.257 m², Large (>1 m²)

Expand to show TLE details & history
Last TLE update: 11 hours ago

TLE from 11 hours ago
0 COSMOS 1995
1 19786U 89009B   26262.58622986  .00000007  00000-0 -18999-4 0  9999
2 19786  82.6263 328.8994 0002116 262.4577 166.1416 12.62237361732253
Epoch: 2026-09-19T14:04Z
TLE epoch observation values (Epoch: 2026-09-19T14:04:10.259Z)
Latitude
67.50241°
Longitude
137.47876°
Altitude
1,426.979 km
Speed
7.153 km/s
True Right ascension
23h 08m 03s
True Declination
67° 23' 28"
Sunlit
Object was in daylight at epoch
Visualization orbit readout
Latitude
Unknown
Longitude
Unknown
Altitude
Unknown
Speed
Unknown
Apparent Right ascension
Unknown
Apparent Declination
Unknown
Sunlit
N/A
Visualization observer readout
Local Sidereal Time
18:21:16
Azimuth
Unknown
Elevation
Unknown
Doppler factor
Unknown
Orbital elements
Apogee altitude
1,412.69 km
Perigee altitude
1,409.394 km
Semi-major axis
7,789.179 km
Eccentricity
0.00021
Inclination
82.6263°
RAAN
328.8994°
Arg. of periapsis
262.4577°
True anomaly
166.14741°
Mean anomaly
166.1416°
Eccentric anomaly
166.1445°
Mean motion
3.15723 °/min
Orbital period
114.02 mins
BSTAR
-0.000018999
Loading maneuver chart data...
Computing Atmospheric mass density...
Loading historical data...
Loading historical data...
Loading historical data...
Loading historical data...
Loading historical data...
Loading historical data...
Loading historical data...

Documentation

Showing up to 5 results
|